Regional Weather Roundup
Issued by NWS

Home | Current Version | Previous Version | Text Only | Print | Product List | Glossary On
Versions: 1 2 3 4 5 6 7 8 9 10 11 12 13 14 15 16 17 18 19 20 21 22 23 24 25 26 27 28 29 30 31 32 33 34 35 36 37 38 39 40 41 42 43 44 45 46 47 48 49 50
000
ASUS44 KMEG 181100
RWRTN
TENNESSEE HOURLY STATE WEATHER ROUNDUP
NATIONAL WEATHER SERVICE MEMPHIS TN
500 AM CST SAT NOV 18 2017

TNZ002-004-019-021-049-052-054-088>092-181200-
WEST TENNESSEE

CITY           SKY/WX    TMP DP  RH WIND       PRES   REMARKS
MEMPHIS INTL   CLOUDY    68  61  78 S26G37    29.68F
NWS MEMPHIS      N/A     68 N/A N/A MISG        N/A
JACKSON        CLOUDY    67  60  78 S18G29    29.68F
DYERSBURG      CLOUDY    69  61  75 S12G23    29.63F
$$

TNZ008-025-027-028-033-062-065-066-181200-
NORTH MIDDLE TENNESSEE

CITY           SKY/WX    TMP DP  RH WIND       PRES   REMARKS
NASHVILLE      CLOUDY    62  51  67 S17G31    29.78F
CLARKSVILLE    CLOUDY    63  53  70 S15G24    29.70F
SMYRNA         CLOUDY    61  49  64 S9G22     29.80S
CROSSVILLE     CLOUDY    51  40  65 S6G16     29.89F
$$

TNZ061-075-076-078-094-096-097-181200-
SOUTH MIDDLE TENNESSEE

CITY           SKY/WX    TMP DP  RH WIND       PRES   REMARKS
WINCHESTER     CLOUDY    57  45  62 S15       29.89F
$$

TNZ017-018-042-046-047-181200-
NORTHEAST TENNESSEE

CITY           SKY/WX    TMP DP  RH WIND       PRES   REMARKS
TRI CITIES     MOCLDY    41  38  89 CALM      29.94S
$$

TNZ012-013-036-069-073-074-181200-
CENTRAL EAST TENNESSEE

CITY           SKY/WX    TMP DP  RH WIND       PRES   REMARKS
KNOXVILLE      MOCLDY    46  41  82 CALM      29.93S
OAK RIDGE      CLOUDY    51  42  71 W3        29.94F
$$

TNZ083-085-099-181200-
SOUTHEAST TENNESSEE

CITY           SKY/WX    TMP DP  RH WIND       PRES   REMARKS
CHATTANOOGA    CLOUDY    52  42  69 S6        29.97F
$$

SKY/WX REPORTED AS FAIR MEANS FEW OR NO CLOUDS BELOW
12 THOUSAND FEET.




USA.gov is the U.S. government's official web portal to all federal, state and local government web resources and services.